Wind_Speed
82 86 90 95 98 101 103 106 110 114 117 120 123 126 129 133 137 140 143 145 147 149 151 152 152 152 152 152 152 152 151 151 151 150 150 149 149 150 150 150 151 152 153 154 154 154 155 155 155 154 154 153 152 151 150 149 148 147 147 146 145 143 142 141 140 140 139 139 139 139 138 137 135 133
77 81 85 90 94 97 100 102 106 110 113 117 119 122 125 128 131 135 138 141 143 147 149 151 152 153 153 153 152 152 152 152 152 151 151 150 150 150 150 149 150 151 152 153 154 154 154 155 155 155 155 155 154 154 153 152 151 150 149 148 147 146 145 143 142 142 141 141 141 141 141 139 138 137
73 76 81 85 89 93 96 99 102 105 109 113 116 119 121 124 126 129 133 135 138 143 146 148 151 152 153 153 153 153 153 153 153 152 152 152 151 151 150 150 150 150 150 151 153 154 154 155 155 155 155 156 156 156 155 154 153 152 152 151 150 149 148 147 145 144 143 143 143 143 143 142 141 140
69 72 76 80 84 88 91 95 98 101 104 108 112 116 118 121 123 125 128 130 133 138 143 146 149 151 153 154 154 154 154 154 154 154 153 153 152 152 151 151 151 150 150 150 151 153 154 154 155 154 155 155 155 156 156 156 155 155 154 154 153 152 151 150 149 147 146 146 145 145 145 144 144 143
64 68 71 75 79 83 87 90 93 97 100 103 107 112 115 118 119 121 123 125 128 133 139 142 146 149 152 153 154 154 154 154 154 154 154 153 153 153 152 152 152 152 151 151 151 151 152 153 154 154 154 155 155 155 155 156 156 156 156 156 155 154 154 153 152 151 150 149 148 148 147 147 146 145
58 63 67 70 74 78 82 86 89 92 96 99 103 106 110 113 116 118 120 121 124 129 134 137 140 145 148 150 152 152 153 153 154 154 154 154 154 153 153 153 153 153 152 152 152 151 151 152 152 153 154 155 155 155 155 155 155 155 156 156 157 156 156 155 155 154 153 152 151 151 150 150 149 148
53 58 62 66 69 73 77 81 85 88 91 94 98 102 105 109 112 115 118 119 121 126 130 132 134 139 143 145 148 150 151 152 154 155 154 154 154 154 154 154 154 154 154 153 153 152 152 152 152 152 153 154 155 155 155 155 155 154 154 155 156 156 156 156 156 156 155 154 154 153 153 152 152 151
50 53 57 61 65 69 73 76 80 84 87 90 93 97 101 104 108 112 115 116 118 121 126 128 130 134 138 141 144 147 150 152 154 156 156 155 155 154 154 154 155 155 155 154 154 153 153 153 153 152 153 153 154 155 155 156 155 155 154 154 154 154 155 155 156 156 156 156 156 155 155 155 154 154
48 49 52 56 61 65 69 72 75 78 82 85 88 92 96 99 103 107 110 112 115 117 121 125 127 130 133 136 139 143 148 151 154 156 157 157 156 156 155 155 155 154 155 155 155 155 154 154 154 154 154 154 153 154 154 155 155 155 155 154 153 153 153 153 154 154 155 156 156 156 156 156 156 156
46 47 49 51 55 59 64 68 71 74 77 81 84 87 91 94 98 102 105 107 111 114 117 121 125 128 130 132 135 139 143 147 150 153 155 156 157 157 157 156 155 155 155 156 156 156 156 156 155 155 155 155 155 154 154 154 154 155 155 155 155 154 153 152 152 153 153 154 155 155 156 156 156 156
43 45 47 48 51 54 58 62 66 70 73 76 79 83 86 89 92 96 100 103 106 110 114 118 122 126 127 129 131 135 139 142 145 148 150 153 155 156 157 157 157 157 157 157 157 157 157 157 157 157 157 156 156 156 155 155 154 154 154 155 155 155 155 154 153 152 152 152 153 154 154 155 156 156
40 42 44 46 48 50 53 57 61 65 68 72 74 78 81 84 87 90 94 98 102 105 109 114 118 122 125 126 127 131 136 139 140 143 145 148 151 154 156 157 158 158 158 158 158 158 158 159 158 158 158 158 158 158 157 156 155 154 154 154 154 155 155 155 154 154 153 152 152 152 153 153 154 154
38 39 41 43 45 47 49 52 56 59 63 67 70 73 77 80 83 86 89 92 96 101 105 110 114 118 121 123 124 127 131 134 135 138 142 144 147 150 153 155 156 157 158 158 158 159 159 160 160 159 159 159 159 159 158 157 156 155 155 154 154 154 155 155 155 155 155 154 154 153 153 153 153 153
36 37 39 40 42 44 47 49 52 55 58 62 65 69 72 75 79 82 85 88 91 95 100 105 109 113 117 120 122 124 127 129 130 133 137 140 143 146 149 151 152 154 156 158 158 159 160 161 161 161 161 160 160 160 159 159 158 157 156 156 156 155 155 155 155 156 156 156 156 155 155 154 153 153
34 35 37 38 39 41 44 46 49 51 54 57 60 64 67 70 74 77 81 84 87 91 95 99 104 108 112 116 119 120 123 125 127 129 132 135 138 141 144 146 147 150 153 156 157 159 160 162 162 162 162 162 162 162 161 160 159 159 158 158 157 157 156 155 155 155 156 156 157 157 156 156 155 154
32 33 35 36 37 39 41 43 46 48 51 53 56 59 62 65 69 72 76 79 83 87 90 94 98 103 107 111 114 116 119 121 123 125 127 130 132 134 138 140 142 145 149 153 155 157 159 162 163 163 163 163 163 163 163 162 162 161 160 159 158 158 158 157 156 155 155 156 157 157 157 157 157 156
29 31 33 34 35 37 38 40 43 45 48 50 53 55 58 61 64 67 71 74 78 82 85 89 93 97 102 106 109 112 115 117 120 121 123 125 126 128 131 134 137 141 146 150 152 153 155 158 160 161 162 162 163 163 164 164 163 163 162 161 160 159 159 158 157 156 156 156 156 157 157 158 158 158
26 28 30 32 34 35 37 38 40 42 45 47 49 52 54 57 60 63 66 69 73 76 80 84 88 92 96 100 104 107 110 112 114 117 119 120 121 122 124 127 130 135 141 145 147 148 150 153 156 157 158 160 162 163 164 164 164 164 163 163 162 161 160 159 159 158 157 156 156 157 157 158 158 158
23 25 27 29 31 33 34 36 38 40 42 44 46 49 51 53 56 59 62 65 68 71 75 78 82 86 90 94 98 101 104 107 109 112 114 117 118 118 120 122 125 129 134 138 140 142 144 148 151 153 154 156 159 161 163 164 164 164 164 163 163 162 161 161 160 159 159 158 157 157 157 158 158 158
22 23 24 26 28 30 32 34 35 37 39 41 43 45 48 50 52 55 57 60 63 67 70 73 77 81 85 88 92 95 98 102 104 107 110 112 113 115 116 117 120 123 127 131 134 135 137 141 146 148 150 152 155 157 159 162 163 164 164 164 164 163 163 162 161 160 160 159 159 158 158 158 158 158
20 21 22 23 25 28 30 32 33 35 37 39 41 43 45 47 49 51 53 56 58 61 65 68 72 76 79 83 86 90 93 96 99 101 104 107 108 110 111 113 116 118 121 124 127 128 130 134 139 142 145 148 151 153 154 157 159 161 162 163 163 163 163 163 162 161 160 160 160 159 159 159 159 159
18 19 20 21 23 25 27 29 31 33 35 37 39 41 43 44 46 48 50 52 54 57 59 63 66 71 74 78 81 84 88 91 94 96 99 101 103 105 107 109 112 114 117 119 121 123 125 129 133 136 139 141 145 147 149 152 154 156 159 160 161 162 163 162 162 161 160 160 160 160 160 160 160 160
17 18 18 20 21 22 24 26 28 31 33 35 37 39 41 42 44 46 47 49 52 54 55 58 61 64 68 72 76 79 82 85 88 91 94 96 97 99 102 106 108 111 113 115 117 119 121 124 128 131 133 135 137 140 144 147 149 152 154 155 157 159 160 161 161 161 160 160 160 160 160 160 160 160
17 17 17 18 19 21 22 24 26 28 30 32 35 37 39 41 42 44 46 48 49 51 52 54 56 59 62 65 69 72 76 80 83 86 89 91 92 95 98 101 103 106 109 111 112 114 116 119 122 124 126 128 130 133 137 140 143 147 149 150 151 153 155 157 158 159 160 159 159 160 160 160 160 160
17 17 17 17 18 19 21 23 24 26 27 29 32 34 37 39 40 42 44 46 47 49 50 52 53 55 58 60 63 65 69 73 76 80 82 85 87 90 93 96 98 101 103 105 107 110 112 114 117 118 119 121 123 126 129 133 136 139 143 145 146 148 150 151 153 155 157 158 159 159 160 160 160 160
18 17 17 17 17 18 19 21 23 24 26 27 29 31 34 36 38 40 42 44 45 47 48 50 51 53 54 56 58 60 63 65 69 72 75 78 81 84 87 90 93 96 98 99 101 104 107 109 111 113 114 115 116 119 122 126 129 132 135 138 140 143 145 147 148 150 152 154 155 157 158 159 159 159
18 17 17 17 17 17 18 19 21 22 24 25 27 29 31 33 35 37 39 41 43 45 46 48 49 50 52 53 55 56 58 59 62 65 68 71 75 78 81 84 87 90 93 94 97 99 102 104 106 107 109 110 111 113 116 119 121 125 128 131 134 136 139 142 143 145 148 150 151 153 155 156 157 157
18 18 17 17 17 17 17 18 19 20 22 23 25 27 29 31 33 34 36 38 41 42 44 46 47 48 50 51 52 53 54 55 58 60 63 66 69 72 76 79 82 85 88 90 93 95 97 98 100 102 104 105 107 108 110 113 115 118 121 124 127 130 133 136 138 141 143 146 148 149 151 152 153 153
19 18 18 17 17 17 17 17 18 19 20 22 23 25 27 29 31 32 34 35 37 39 41 43 45 46 48 49 50 51 52 54 56 58 59 61 63 66 70 73 76 80 82 85 87 90 92 93 96 97 99 101 103 104 106 108 110 112 114 117 120 123 126 129 132 135 139 142 144 145 146 147 148 148
20 19 18 18 17 17 17 18 18 19 20 21 22 23 24 26 29 31 32 34 35 36 38 40 42 43 46 48 49 50 51 53 54 55 56 57 59 61 64 66 69 73 76 78 81 84 86 88 91 93 95 96 98 100 102 104 106 108 110 112 115 117 120 123 126 129 133 136 139 140 141 142 143 144
21 21 20 19 18 17 17 18 18 19 20 20 21 22 23 25 27 28 30 32 34 34 36 37 39 41 43 45 47 49 50 51 52 53 54 55 56 58 59 61 63 65 69 72 75 78 81 84 86 88 91 93 95 97 98 99 102 104 107 109 110 112 115 117 120 123 126 129 132 134 135 136 138 139
22 22 21 20 19 18 18 18 19 19 20 20 21 21 22 24 25 27 28 30 32 33 34 35 36 38 40 42 44 46 48 49 50 51 52 53 54 55 56 58 59 60 63 66 69 73 76 79 81 83 86 88 91 93 94 96 98 100 103 105 107 108 110 112 114 117 119 122 125 127 129 131 133 135
23 22 22 21 20 19 19 19 19 19 20 20 21 21 22 23 24 26 27 28 29 30 32 33 34 36 38 40 41 42 44 46 47 49 50 51 52 53 54 55 56 57 59 61 64 67 70 73 76 79 81 83 86 88 90 92 94 96 98 100 102 104 105 107 109 111 114 116 119 121 123 125 128 130
23 23 22 21 20 20 19 19 20 20 20 20 20 21 21 22 23 24 25 26 27 28 29 31 32 33 35 37 39 39 40 42 43 45 48 49 50 51 52 53 54 55 57 58 59 61 64 67 70 73 76 79 81 83 85 87 89 92 94 96 98 99 101 102 104 106 109 111 114 116 117 119 121 123
24 23 23 22 21 20 20 20 20 20 20 20 20 20 20 21 21 22 23 25 26 26 27 28 29 31 33 35 36 37 38 38 40 42 45 47 48 49 50 51 52 53 54 55 57 58 59 61 64 67 71 74 77 79 81 83 85 87 90 92 94 95 97 98 100 102 104 106 108 110 112 113 115 116
24 24 23 22 22 21 20 20 20 20 20 20 20 20 20 20 20 20 21 23 24 25 25 26 27 28 30 32 33 35 35 36 37 39 42 43 45 46 47 48 50 51 52 53 54 55 56 57 59 62 65 69 72 75 77 79 81 83 85 87 89 91 93 94 95 97 99 101 103 105 107 108 109 110
24 24 23 23 22 21 21 20 20 20 20 20 20 20 20 20 19 19 19 20 22 23 24 25 25 26 27 29 31 32 33 34 35 37 39 40 42 44 45 46 47 48 50 51 51 52 54 55 56 58 60 63 66 69 72 74 77 79 81 83 85 87 89 90 92 93 94 96 98 99 101 102 104 105
24 23 23 23 23 22 21 21 20 20 20 19 19 19 19 19 19 18 17 18 20 21 22 23 24 24 25 27 28 29 31 32 33 34 36 38 40 41 42 44 45 46 47 48 49 50 52 53 54 55 56 58 61 63 66 69 71 74 76 78 80 82 84 86 88 90 91 92 93 94 95 97 98 99
24 23 23 23 22 22 22 21 20 20 19 19 19 19 19 19 19 18 17 17 18 19 20 21 22 22 23 24 25 27 29 30 31 32 34 35 37 38 40 41 42 43 45 46 47 48 49 50 51 52 53 54 56 57 59 62 65 68 70 73 75 77 79 81 83 86 88 89 90 90 91 91 92 93
25 24 23 22 22 22 22 22 21 20 20 19 19 18 18 18 18 18 17 16 16 17 19 19 20 21 21 21 23 25 26 28 29 30 32 33 34 35 36 38 39 40 42 43 44 46 47 48 49 49 50 51 52 53 55 57 60 63 66 68 71 72 74 76 78 80 83 85 87 88 88 88 88 88
25 24 24 23 22 22 22 22 22 21 20 19 18 18 18 18 18 18 17 16 15 15 17 18 18 19 19 19 20 22 24 25 27 28 28 30 31 32 33 35 36 37 38 40 41 43 44 45 46 47 48 49 49 50 51 53 55 57 60 64 66 69 70 72 74 76 78 80 82 84 85 85 85 86
24 24 24 23 22 22 21 22 22 21 21 20 19 18 17 17 17 17 17 16 15 14 14 16 16 17 17 18 18 19 21 22 24 26 26 28 29 30 31 32 34 35 36 37 39 40 41 43 44 45 46 47 47 48 49 50 52 54 56 59 62 64 67 69 70 72 74 76 78 80 81 82 83 83
24 23 23 23 23 22 21 21 21 21 21 20 19 18 17 17 16 16 17 17 16 14 13 14 14 15 15 16 17 17 18 20 21 23 25 26 27 28 29 30 31 32 33 35 36 38 39 40 41 43 44 45 46 46 47 48 50 51 52 54 56 59 62 64 66 68 69 71 73 75 77 78 79 80
24 22 22 22 23 22 22 21 21 21 21 21 20 19 18 17 16 16 16 16 16 15 13 12 13 13 14 15 15 16 17 18 19 21 22 24 25 26 27 28 28 29 31 32 33 35 36 37 39 40 41 42 43 44 45 46 47 49 50 52 53 55 57 59 61 64 66 67 69 71 73 75 76 77
24 23 22 21 22 22 22 21 21 21 21 21 20 20 18 17 17 16 16 16 15 15 14 12 12 12 13 14 14 15 15 16 17 18 20 21 23 24 25 26 26 27 28 29 30 32 33 34 36 37 38 39 40 41 43 44 45 47 48 50 51 53 55 56 58 60 62 64 66 68 70 72 73 74
Wind_Direction
235 234 233 233 232 232 231 230 230 230 230 230 230 231 231 231 231 230 229 228 229 229 230 231 231 231 232 232 233 233 234 234 235 235 235 236 236 237 237 237 237 238 238 238 238 238 238 239 239 239 239 240 240 240 240 240 241 241 242 242 242 242 242 242 243 243 244 244 244 244 245 245 246 246
236 235 234 234 233 233 232 231 230 230 230 230 230 231 231 231 231 231 231 229 229 229 229 230 231 231 232 232 232 233 233 234 234 234 235 235 235 236 237 237 237 237 238 238 238 238 238 238 239 239 239 240 240 240 241 241 241 241 242 242 243 243 243 243 243 243 244 244 245 245 245 245 245 246
237 235 235 234 234 234 233 232 231 230 230 230 230 231 231 231 231 231 231 231 230 229 229 230 230 231 231 231 232 232 232 233 233 233 234 234 235 235 236 237 237 237 237 237 238 238 238 238 239 239 239 240 240 240 240 241 241 241 241 242 242 243 244 244 244 244 244 244 245 246 246 246 246 246
238 237 235 234 234 234 234 233 232 231 231 230 230 231 231 231 231 231 231 231 231 231 230 229 230 231 231 231 231 232 232 232 233 233 233 233 234 234 235 236 236 237 237 237 237 238 238 239 239 239 239 239 240 240 241 241 241 241 241 242 242 242 243 244 244 244 244 245 245 246 247 247 247 247
238 237 236 235 234 234 234 234 233 232 232 231 231 231 231 231 231 231 231 231 231 232 232 230 230 230 231 231 231 231 232 232 232 233 233 233 233 234 234 235 235 236 236 237 237 237 237 238 238 239 239 239 239 240 241 241 241 241 241 242 242 242 242 243 244 244 244 245 245 246 247 247 248 248
237 237 237 236 235 235 235 235 234 233 233 232 232 231 231 231 232 232 231 231 230 232 232 232 231 231 231 231 231 231 231 232 233 233 233 233 233 233 234 234 235 235 236 236 237 237 237 237 238 238 239 239 239 240 240 240 241 242 242 242 242 242 242 243 243 244 244 245 245 246 246 247 248 248
239 236 236 236 236 235 235 235 235 235 234 233 232 232 232 231 231 232 232 231 230 231 232 232 232 232 232 231 231 232 232 232 232 232 232 233 233 233 233 234 234 234 235 236 236 236 237 237 237 237 238 238 239 239 240 240 240 241 242 242 243 243 243 243 243 244 244 244 245 246 246 247 247 248
242 238 236 236 236 236 235 235 235 235 235 234 233 232 232 232 232 232 232 232 231 231 232 233 232 232 232 232 231 232 232 231 231 232 232 232 232 232 233 233 234 234 234 235 235 236 236 237 237 237 237 238 238 239 239 240 240 240 241 242 243 243 243 243 244 244 244 244 245 245 246 246 247 248
245 242 239 236 235 235 236 236 235 235 235 235 234 233 233 232 232 232 232 232 232 231 232 233 233 232 232 232 231 232 232 232 232 232 232 232 232 232 232 232 233 234 234 235 235 235 236 236 237 237 238 238 237 238 238 239 239 240 240 241 241 242 243 244 244 244 244 245 245 245 246 246 247 247
246 245 242 239 237 236 235 236 236 235 235 235 235 235 234 233 232 233 233 232 232 232 232 233 233 234 233 232 232 232 232 232 233 233 233 233 232 232 232 232 232 233 233 234 235 235 235 235 236 236 237 237 238 238 238 238 238 239 240 240 241 241 242 243 244 244 245 245 245 246 246 246 247 247
247 246 245 242 239 237 236 236 236 236 236 235 235 235 235 234 233 233 233 233 232 232 232 233 234 235 234 233 232 232 232 232 232 233 234 234 234 233 233 232 232 232 232 233 234 234 235 235 236 236 236 237 237 238 238 238 238 238 238 239 240 241 241 242 242 243 244 245 245 246 246 246 247 247
248 247 246 245 243 240 238 236 236 236 236 236 235 235 235 235 235 234 233 233 233 232 232 233 234 235 235 235 233 233 233 232 232 232 233 233 234 234 234 233 233 233 233 233 233 234 234 235 235 236 236 236 237 237 238 238 238 238 238 238 239 240 241 241 242 242 243 244 245 245 246 246 247 247
250 248 247 246 244 242 240 238 237 236 236 236 236 236 235 235 235 234 234 234 233 233 232 233 233 234 235 236 235 234 234 234 233 232 232 233 233 234 235 235 234 234 233 233 233 234 234 234 235 235 236 236 237 237 237 238 238 238 238 238 238 239 239 240 241 241 242 243 244 244 245 246 246 247
251 250 248 247 245 243 242 240 239 237 236 235 235 236 236 236 235 235 234 234 233 233 233 233 234 234 235 236 236 236 236 235 234 234 233 233 232 233 234 235 235 235 235 234 234 234 234 235 235 235 235 236 236 237 237 237 238 238 238 239 239 239 238 239 240 241 241 242 243 243 244 245 246 247
252 251 250 248 247 245 243 241 240 239 237 236 235 235 236 236 236 236 235 235 234 233 233 233 234 235 235 236 236 236 237 237 236 235 235 234 233 233 234 234 235 235 236 236 235 234 234 235 235 235 235 236 236 237 237 237 237 237 238 238 239 239 239 239 239 240 241 241 242 243 243 244 245 246
253 252 251 250 248 247 245 243 242 241 239 238 237 236 235 235 236 237 237 236 236 235 234 233 233 234 235 236 236 236 237 237 237 237 236 236 235 234 234 234 234 235 235 236 236 235 235 235 236 236 236 236 236 237 237 237 237 237 237 237 238 239 239 239 239 239 240 241 241 242 243 244 244 245
253 251 251 250 249 248 247 245 243 242 241 240 239 238 237 236 236 236 236 237 237 237 236 235 234 234 235 236 236 237 237 237 237 238 238 237 237 236 235 235 234 234 235 235 236 236 236 237 237 236 237 237 237 237 237 238 238 238 238 238 238 238 238 239 239 239 239 240 241 242 242 243 244 244
256 253 251 250 249 249 248 246 245 243 242 241 240 240 239 238 237 237 236 236 237 237 237 237 236 236 236 236 236 237 237 237 238 238 238 239 238 237 236 236 235 235 236 236 236 236 236 237 238 238 237 237 237 238 238 238 238 239 239 239 238 238 238 238 239 240 240 240 240 241 242 242 243 244
262 256 252 250 249 249 248 248 247 246 244 243 242 241 240 239 239 238 237 237 237 237 237 237 237 237 238 237 237 237 237 237 238 238 238 239 239 238 237 237 236 236 237 237 237 236 236 237 238 238 238 238 238 238 238 239 239 239 240 240 240 239 239 239 239 239 240 240 240 240 241 242 243 243
269 263 257 252 249 248 247 247 247 247 246 245 244 242 241 241 240 239 239 238 238 238 237 237 237 238 238 238 239 238 238 238 238 238 238 239 239 239 238 238 237 237 237 237 238 238 237 237 237 238 238 238 238 238 239 239 240 240 240 241 241 241 241 240 239 239 239 240 240 241 241 242 242 243
274 269 264 258 253 249 247 246 246 246 246 246 245 245 244 242 241 240 239 239 239 238 238 238 238 238 238 238 239 239 239 239 239 238 239 239 239 239 239 239 239 238 238 238 238 238 237 237 238 237 237 238 239 239 239 239 240 240 241 241 241 242 242 242 241 241 240 240 240 241 241 241 242 243
278 272 268 264 259 254 250 247 246 245 245 245 245 245 245 245 244 242 241 240 239 239 238 238 238 238 238 238 238 239 239 239 240 239 239 239 239 239 239 239 239 239 239 239 238 238 237 237 237 238 237 237 238 239 239 239 240 240 241 241 241 242 242 243 243 243 242 242 241 241 241 241 242 242
284 277 271 267 264 260 256 251 248 246 245 244 244 244 244 245 245 244 244 243 241 240 239 238 238 238 238 238 238 238 239 239 239 240 240 240 239 239 239 239 239 239 238 238 238 238 238 237 237 237 237 237 237 238 238 239 240 240 241 241 241 242 242 243 244 244 244 243 243 243 242 242 242 242
288 281 274 270 267 265 261 257 253 250 247 245 244 244 244 244 244 244 244 244 244 243 241 240 239 239 239 238 238 238 238 238 239 239 240 240 240 239 239 239 239 239 239 239 239 238 238 238 238 238 237 237 237 237 238 238 239 240 240 241 241 241 242 242 243 244 244 244 244 244 244 244 244 243
293 286 279 272 267 265 264 262 259 255 252 249 247 245 245 244 244 243 244 244 244 244 244 243 242 241 240 239 239 238 238 238 238 239 239 239 239 239 239 239 239 240 240 239 239 239 239 239 239 239 238 238 238 238 238 238 238 239 240 241 241 241 242 242 242 243 244 244 245 245 245 245 245 245
293 289 284 277 271 266 264 262 261 259 257 255 252 249 248 246 245 244 244 244 244 244 244 244 244 243 242 241 240 239 239 238 238 239 239 239 239 239 239 240 240 240 240 240 240 240 240 240 240 240 239 239 238 238 238 238 238 238 239 240 240 241 241 242 242 242 243 243 244 244 245 245 246 246
290 287 284 280 276 271 268 265 262 261 260 259 257 255 252 250 248 246 245 245 245 244 244 244 244 244 244 244 243 241 240 239 239 239 239 238 238 238 238 239 239 240 240 240 240 240 240 240 240 240 240 240 239 238 238 238 238 238 238 239 239 240 241 241 242 242 242 243 243 244 244 245 245 246
291 288 284 280 277 274 272 269 266 264 262 261 260 259 258 255 253 250 248 247 246 245 245 244 244 244 244 245 244 244 242 241 240 239 238 237 237 237 237 237 237 238 238 238 239 239 239 239 240 240 240 240 240 239 238 238 238 238 238 238 238 239 239 240 241 241 242 242 243 243 244 244 245 245
294 290 286 282 279 277 275 273 271 269 267 264 262 262 261 260 259 256 253 250 248 247 247 245 244 243 244 244 244 244 244 243 241 240 239 238 237 237 237 237 237 237 237 238 238 238 238 238 239 239 239 240 240 239 239 239 238 238 238 238 238 238 238 239 239 240 241 242 242 243 244 244 245 245
297 292 288 284 281 279 277 276 274 273 271 269 267 265 264 263 262 261 260 257 254 251 249 248 246 244 243 243 243 243 242 242 242 242 241 240 239 238 237 237 237 237 237 238 238 238 238 238 238 238 238 238 239 239 239 238 238 238 238 237 237 237 238 238 238 239 240 241 241 242 243 244 245 245
300 295 290 287 284 282 279 277 275 273 272 271 270 269 268 267 265 263 262 260 259 256 253 250 249 246 244 242 242 242 242 242 242 243 242 241 240 240 239 238 237 237 237 237 237 237 238 238 238 238 237 237 237 237 237 237 238 238 238 238 237 237 237 237 237 238 239 240 241 241 242 243 244 245
300 296 292 289 287 286 283 280 278 276 273 272 270 269 268 267 267 265 263 261 260 258 256 253 251 249 247 245 242 241 241 242 242 242 242 242 242 241 240 239 238 237 236 236 236 236 236 237 237 237 237 237 237 237 236 236 236 237 237 237 237 237 237 236 237 237 238 239 240 240 241 242 243 244
301 297 294 291 288 287 285 283 281 278 275 272 269 267 265 265 265 266 265 263 261 260 258 256 253 250 248 247 245 243 241 241 241 241 241 241 241 241 241 240 239 238 237 236 236 235 235 235 236 236 237 237 237 237 236 236 236 236 236 237 237 237 237 237 236 237 237 238 239 239 240 240 241 242
303 299 295 292 289 287 287 285 284 282 279 276 272 269 266 264 264 264 265 265 263 261 259 258 255 252 249 248 247 245 243 241 240 241 241 241 240 240 240 240 240 239 238 237 237 236 236 235 235 235 235 236 236 237 237 236 236 235 236 236 236 236 236 236 236 236 237 237 238 239 239 240 240 241
304 300 297 294 292 289 287 286 286 285 283 280 277 274 270 266 263 263 264 265 265 264 262 259 257 254 251 248 247 245 244 241 240 239 240 241 241 240 240 240 240 240 239 238 238 237 237 236 236 236 235 235 235 235 236 236 236 235 235 235 235 235 235 235 235 235 236 236 237 238 239 239 240 241
306 302 299 295 293 291 288 286 286 286 284 283 281 279 276 271 266 264 264 264 265 265 264 262 259 256 253 250 247 245 244 242 240 239 239 239 240 240 239 239 239 240 239 239 238 238 237 237 236 236 235 235 235 235 234 234 235 235 235 235 235 235 234 234 234 234 235 236 236 237 238 238 239 240
307 304 300 297 294 292 289 287 285 285 284 284 283 282 280 276 272 268 267 267 266 265 264 263 261 259 256 252 249 246 244 243 241 240 239 238 238 238 238 238 238 238 239 239 239 238 237 237 236 236 236 235 235 235 234 234 234 234 235 235 235 234 234 234 234 234 234 235 235 236 237 238 238 239
307 304 301 299 295 292 290 288 286 284 284 284 284 283 282 280 276 273 272 271 270 268 266 264 262 260 257 254 250 247 244 242 241 240 240 239 238 238 237 237 237 237 238 238 238 238 237 237 237 236 236 236 236 235 235 235 234 234 235 235 235 235 234 234 234 233 233 234 234 235 236 237 237 238
307 304 302 299 296 293 290 288 286 285 283 283 283 283 283 282 280 277 275 274 274 272 269 266 263 260 258 255 251 248 245 242 241 240 239 239 239 238 238 238 237 237 237 237 237 237 237 237 237 236 236 236 236 236 235 235 234 234 234 234 235 235 235 235 235 234 234 233 233 233 234 235 236 237
306 305 303 300 297 295 291 289 287 285 283 282 282 282 282 283 283 281 278 275 275 275 273 269 266 262 259 256 252 248 245 243 242 241 240 240 240 240 239 239 238 238 237 237 237 237 237 236 236 236 236 236 236 235 235 234 233 233 233 233 233 234 234 234 235 235 235 234 234 233 233 233 234 235
305 304 303 301 298 296 292 289 287 284 283 281 280 280 281 282 282 282 280 277 275 276 275 273 269 265 261 258 254 249 246 243 242 241 241 240 240 240 239 239 238 237 237 236 236 236 236 236 236 235 235 235 234 234 234 233 233 232 232 232 232 232 232 233 233 234 234 234 234 234 233 233 233 234
304 303 303 301 299 296 293 290 287 284 282 281 279 278 278 279 280 281 281 279 276 275 275 274 272 269 265 260 256 251 246 243 241 240 239 238 238 238 239 238 238 237 236 235 235 234 234 235 235 234 234 234 233 233 232 232 232 231 231 231 231 232 232 232 232 232 233 233 233 233 233 233 233 234
304 302 301 300 299 296 293 291 288 285 282 280 278 277 277 278 279 280 280 279 277 275 273 274 274 271 268 263 258 253 248 243 240 239 238 237 237 237 237 238 238 238 237 236 235 234 233 233 233 233 233 233 232 232 231 231 230 230 230 230 231 231 231 231 231 232 232 232 232 232 233 233 233 234
305 302 300 299 298 296 294 291 289 287 284 280 278 275 275 276 277 278 279 279 278 275 273 272 272 272 270 266 261 256 251 246 241 239 237 237 237 237 237 237 237 237 237 236 236 235 234 233 233 233 233 233 232 232 231 230 230 229 229 229 229 230 230 231 231 231 231 231 231 231 231 232 233 233
307 302 299 297 296 295 294 292 290 287 285 282 279 276 273 273 274 275 276 277 277 276 273 270 269 269 269 267 262 258 253 249 244 240 238 237 236 236 236 236 236 236 236 237 236 236 235 234 233 233 232 232 232 232 231 230 230 229 229 228 228 228 229 229 230 230 231 231 231 231 231 232 232 233
Height
10013 10018 10022 10027 10033 10040 10047 10055 10064 10070 10076 10084 10091 10099 10107 10115 10124 10131 10142 10154 10167 10175 10179 10187 10197 10204 10212 10222 10230 10239 10250 10259 10269 10279 10288 10297 10304 10311 10319 10328 10337 10345 10352 10360 10368 10376 10383 10391 10398 10406 10413 10419 10426 10433 10441 10448 10454 10458 10462 10468 10474 10482 10489 10496 10502 10507 10512 10518 10520 10522 10527 10536 10543 10550
10003 10008 10012 10016 10022 10027 10033 10042 10050 10057 10064 10070 10077 10084 10092 10100 10109 10117 10127 10140 10152 10158 10163 10172 10181 10187 10196 10205 10214 10222 10232 10241 10250 10260 10270 10279 10288 10295 10302 10312 10321 10329 10337 10344 10351 10359 10366 10374 10382 10390 10397 10403 10409 10416 10424 10432 10440 10445 10450 10455 10461 10466 10473 10482 10488 10493 10498 10503 10505 10507 10513 10522 10529 10535
9992 9997 10002 10006 10011 10015 10022 10029 10036 10044 10052 10058 10064 10071 10079 10086 10095 10104 10112 10125 10138 10142 10148 10157 10163 10168 10178 10188 10195 10203 10212 10220 10229 10239 10250 10259 10269 10277 10285 10294 10303 10312 10320 10328 10334 10341 10349 10357 10365 10373 10380 10386 10392 10399 10407 10414 10422 10429 10436 10442 10447 10452 10457 10466 10473 10479 10484 10489 10492 10493 10498 10505 10512 10519
9983 9987 9992 9996 10001 10005 10011 10017 10024 10031 10038 10046 10052 10058 10065 10072 10081 10090 10097 10110 10124 10127 10130 10140 10145 10149 10159 10168 10174 10182 10192 10201 10209 10218 10229 10239 10249 10259 10268 10276 10283 10292 10301 10310 10318 10325 10331 10340 10348 10357 10364 10371 10377 10383 10390 10397 10404 10412 10419 10425 10432 10437 10443 10449 10456 10462 10468 10474 10478 10481 10484 10489 10495 10502
9974 9978 9982 9987 9991 9995 10000 10005 10012 10019 10026 10032 10039 10046 10052 10059 10067 10076 10083 10096 10110 10108 10110 10123 10130 10132 10140 10149 10157 10168 10177 10186 10193 10201 10212 10222 10231 10241 10250 10259 10265 10273 10282 10290 10299 10307 10315 10323 10332 10340 10347 10354 10361 10367 10374 10380 10387 10394 10401 10407 10415 10422 10428 10434 10440 10446 10452 10458 10463 10467 10471 10475 10479 10485
9966 9969 9973 9977 9982 9987 9991 9995 10000 10007 10013 10020 10028 10034 10041 10048 10055 10062 10069 10081 10092 10091 10092 10106 10116 10120 10127 10137 10146 10155 10164 10171 10177 10185 10195 10205 10214 10223 10232 10241 10248 10256 10264 10272 10281 10289 10298 10307 10315 10323 10330 10337 10343 10350 10358 10364 10371 10378 10384 10390 10397 10405 10412 10419 10424 10430 10437 10442 10447 10452 10457 10461 10464 10469
9958 9962 9965 9969 9973 9977 9981 9985 9989 9995 10001 10008 10016 10022 10028 10036 10042 10048 10054 10064 10075 10077 10077 10088 10101 10106 10113 10124 10133 10139 10148 10156 10159 10165 10176 10185 10195 10205 10214 10222 10231 10239 10246 10255 10263 10272 10281 10289 10297 10305 10313 10320 10326 10332 10340 10348 10355 10363 10368 10374 10380 10387 10395 10402 10409 10415 10421 10427 10432 10436 10441 10446 10450 10454
9950 9954 9958 9961 9964 9968 9971 9976 9980 9985 9990 9996 10004 10010 10016 10023 10029 10034 10041 10050 10061 10065 10066 10072 10083 10089 10095 10106 10117 10121 10127 10133 10136 10142 10154 10164 10174 10186 10194 10203 10212 10221 10228 10237 10246 10254 10263 10270 10278 10285 10293 10301 10309 10315 10322 10330 10338 10346 10354 10360 10364 10370 10378 10386 10393 10399 10405 10410 10416 10421 10426 10430 10435 10439
9942 9946 9950 9953 9957 9960 9963 9967 9971 9976 9981 9986 9991 9998 10004 10011 10017 10022 10030 10039 10048 10053 10056 10060 10066 10071 10076 10087 10097 10102 10106 10112 10118 10125 10135 10145 10155 10164 10173 10182 10193 10203 10211 10219 10227 10236 10244 10252 10259 10266 10273 10281 10290 10298 10305 10313 10320 10328 10336 10344 10350 10355 10361 10369 10376 10382 10388 10393 10399 10405 10410 10415 10420 10425
9935 9938 9941 9945 9949 9953 9956 9959 9962 9966 9971 9975 9980 9986 9992 9998 10004 10011 10018 10027 10035 10040 10046 10049 10050 10051 10059 10070 10080 10085 10090 10098 10106 10112 10120 10130 10138 10148 10157 10166 10177 10185 10192 10199 10208 10216 10224 10232 10240 10248 10255 10261 10269 10279 10287 10295 10303 10311 10319 10327 10334 10340 10346 10353 10359 10365 10371 10376 10381 10388 10394 10398 10404 10409
9929 9931 9934 9937 9940 9944 9948 9951 9954 9957 9961 9966 9970 9975 9980 9987 9993 9999 10006 10013 10021 10028 10033 10036 10036 10036 10043 10054 10064 10069 10071 10079 10089 10098 10107 10117 10125 10134 10142 10151 10158 10165 10171 10179 10187 10195 10204 10212 10221 10229 10237 10244 10251 10259 10268 10277 10285 10295 10303 10310 10317 10323 10330 10337 10343 10349 10354 10360 10365 10370 10377 10381 10386 10392
9923 9925 9927 9930 9933 9936 9939 9943 9946 9950 9953 9957 9961 9965 9970 9976 9981 9988 9994 10000 10008 10014 10020 10023 10024 10024 10028 10037 10049 10053 10052 10059 10074 10085 10093 10102 10108 10114 10122 10132 10140 10147 10154 10163 10170 10178 10185 10193 10202 10210 10219 10226 10233 10241 10250 10259 10268 10277 10285 10294 10300 10307 10313 10320 10327 10333 10339 10344 10349 10354 10360 10365 10370 10375
9917 9919 9921 9923 9926 9928 9931 9935 9938 9942 9945 9949 9952 9956 9960 9965 9970 9975 9981 9988 9995 10001 10006 10009 10010 10012 10016 10023 10032 10037 10036 10045 10062 10071 10074 10082 10092 10097 10104 10116 10126 10133 10141 10149 10156 10161 10168 10175 10184 10191 10199 10207 10215 10223 10231 10241 10251 10260 10268 10275 10283 10290 10297 10303 10309 10316 10322 10327 10333 10338 10344 10349 10354 10358
9912 9914 9915 9917 9919 9921 9924 9927 9930 9933 9937 9941 9944 9947 9951 9955 9959 9964 9969 9975 9981 9987 9992 9996 9998 10002 10006 10009 10015 10021 10024 10032 10046 10053 10056 10065 10077 10082 10087 10098 10111 10118 10125 10133 10141 10147 10152 10158 10165 10172 10179 10188 10196 10203 10213 10224 10234 10243 10250 10256 10263 10271 10280 10287 10293 10298 10304 10311 10316 10322 10328 10334 10339 10343
9908 9908 9910 9911 9913 9915 9917 9920 9923 9926 9929 9932 9936 9939 9943 9946 9950 9954 9959 9963 9968 9974 9979 9984 9988 9991 9994 9995 10000 10008 10013 10018 10027 10036 10040 10048 10060 10067 10072 10084 10098 10104 10109 10115 10123 10131 10135 10137 10144 10153 10161 10169 10177 10184 10194 10205 10213 10222 10230 10238 10245 10252 10261 10270 10278 10283 10288 10294 10300 10306 10312 10318 10323 10328
9904 9904 9905 9906 9907 9909 9911 9913 9916 9918 9921 9924 9927 9931 9935 9938 9941 9945 9949 9953 9957 9961 9966 9971 9976 9979 9981 9983 9989 9996 10001 10004 10010 10019 10025 10032 10044 10054 10061 10071 10084 10089 10089 10093 10100 10111 10117 10119 10125 10136 10145 10154 10161 10167 10176 10185 10192 10200 10210 10219 10227 10234 10241 10250 10260 10268 10274 10278 10283 10289 10294 10301 10307 10312
9900 9900 9900 9901 9902 9903 9905 9907 9909 9912 9914 9917 9920 9923 9926 9929 9933 9936 9939 9943 9947 9950 9955 9959 9963 9966 9969 9973 9977 9982 9986 9991 9997 10004 10010 10018 10029 10040 10047 10057 10068 10070 10067 10070 10081 10093 10102 10105 10111 10123 10133 10140 10146 10152 10159 10165 10171 10180 10190 10199 10208 10217 10224 10232 10241 10250 10258 10264 10268 10273 10278 10284 10290 10295
9896 9896 9897 9897 9897 9898 9899 9901 9902 9905 9907 9910 9912 9915 9918 9921 9924 9927 9931 9934 9937 9940 9944 9948 9952 9955 9959 9962 9964 9968 9973 9980 9986 9992 9997 10003 10012 10024 10033 10042 10051 10053 10051 10055 10067 10080 10089 10093 10096 10109 10122 10128 10130 10136 10143 10148 10153 10161 10170 10180 10189 10198 10207 10215 10223 10231 10239 10247 10254 10258 10262 10267 10273 10279
9892 9892 9893 9893 9893 9894 9894 9895 9897 9898 9900 9902 9905 9907 9910 9913 9916 9919 9922 9925 9928 9931 9934 9938 9941 9945 9948 9950 9953 9958 9963 9968 9974 9979 9984 9989 9996 10006 10017 10025 10033 10038 10040 10043 10051 10065 10078 10081 10081 10092 10107 10112 10114 10120 10127 10131 10137 10145 10153 10162 10170 10179 10188 10197 10206 10213 10221 10229 10237 10243 10247 10251 10256 10262
9888 9888 9888 9889 9889 9890 9890 9891 9891 9892 9894 9895 9897 9900 9902 9905 9907 9910 9913 9916 9919 9922 9925 9928 9931 9934 9936 9939 9943 9947 9951 9956 9961 9965 9970 9976 9982 9991 10000 10008 10015 10020 10024 10029 10035 10049 10063 10067 10065 10075 10088 10091 10095 10104 10112 10117 10123 10129 10137 10145 10152 10160 10168 10178 10188 10197 10204 10211 10218 10226 10232 10236 10240 10246
9884 9884 9884 9884 9885 9885 9886 9886 9887 9887 9888 9889 9890 9892 9894 9896 9899 9902 9905 9907 9910 9913 9915 9918 9921 9923 9926 9929 9932 9935 9939 9943 9948 9954 9958 9963 9970 9977 9985 9993 9998 10004 10009 10015 10022 10033 10045 10049 10050 10058 10068 10072 10077 10087 10096 10103 10109 10114 10121 10129 10136 10143 10150 10158 10169 10179 10187 10194 10201 10208 10215 10220 10225 10230
9882 9881 9880 9880 9880 9881 9881 9881 9882 9882 9883 9884 9885 9886 9887 9889 9891 9893 9896 9898 9900 9903 9906 9908 9911 9913 9916 9919 9922 9925 9928 9932 9937 9943 9947 9951 9957 9965 9972 9976 9982 9987 9992 9999 10006 10015 10025 10030 10031 10039 10049 10056 10063 10072 10080 10087 10092 10097 10104 10114 10121 10128 10134 10141 10150 10160 10170 10178 10184 10191 10197 10202 10208 10213
9879 9878 9877 9876 9876 9876 9876 9877 9877 9877 9878 9879 9879 9880 9881 9882 9884 9886 9888 9889 9891 9894 9896 9899 9901 9903 9906 9909 9912 9915 9918 9922 9926 9929 9933 9938 9946 9953 9957 9960 9965 9970 9975 9982 9989 9997 10005 10010 10013 10020 10031 10040 10049 10057 10063 10069 10074 10079 10086 10096 10105 10112 10119 10126 10133 10142 10152 10160 10167 10173 10179 10184 10190 10196
9876 9875 9874 9873 9872 9872 9872 9872 9872 9873 9873 9874 9874 9874 9875 9876 9877 9879 9880 9881 9883 9885 9888 9890 9892 9894 9896 9898 9902 9905 9908 9912 9915 9918 9921 9928 9935 9939 9943 9946 9951 9956 9960 9967 9974 9981 9988 9993 9997 10005 10015 10025 10035 10042 10047 10053 10059 10063 10069 10078 10088 10096 10104 10111 10118 10125 10134 10141 10148 10154 10160 10166 10173 10180
9873 9872 9871 9870 9869 9869 9868 9868 9868 9868 9868 9869 9869 9869 9870 9870 9871 9872 9873 9874 9876 9877 9879 9881 9883 9885 9887 9889 9892 9895 9898 9901 9905 9908 9912 9918 9923 9926 9929 9934 9938 9942 9947 9954 9961 9967 9973 9978 9983 9991 10001 10011 10021 10027 10032 10039 10045 10050 10055 10063 10071 10080 10087 10094 10102 10110 10117 10124 10130 10136 10141 10148 10155 10162
9870 9869 9868 9866 9866 9865 9865 9864 9864 9864 9864 9864 9864 9864 9865 9865 9866 9866 9867 9868 9869 9870 9872 9873 9875 9877 9879 9881 9883 9886 9889 9892 9895 9898 9903 9907 9911 9915 9918 9922 9927 9931 9936 9943 9949 9954 9959 9964 9970 9977 9986 9996 10005 10011 10017 10023 10031 10037 10043 10049 10057 10065 10070 10077 10085 10094 10100 10105 10112 10117 10122 10128 10136 10142
9868 9866 9864 9863 9862 9861 9861 9860 9860 9860 9859 9859 9859 9859 9860 9860 9860 9861 9861 9862 9862 9863 9865 9866 9867 9869 9871 9872 9875 9878 9880 9884 9887 9889 9893 9896 9899 9903 9907 9911 9915 9919 9924 9930 9936 9940 9945 9950 9956 9963 9970 9979 9988 9995 10000 10008 10016 10023 10029 10035 10043 10050 10055 10061 10069 10077 10082 10086 10092 10098 10103 10108 10116 10123
9865 9863 9862 9860 9859 9858 9857 9856 9856 9856 9855 9855 9855 9854 9854 9854 9854 9855 9855 9856 9856 9857 9858 9859 9860 9862 9863 9864 9866 9869 9872 9875 9877 9879 9881 9884 9888 9891 9895 9898 9902 9906 9911 9916 9921 9925 9931 9937 9943 9949 9956 9963 9970 9978 9985 9992 10000 10007 10013 10020 10027 10034 10039 10046 10053 10060 10064 10067 10072 10078 10084 10090 10098 10106
9862 9860 9859 9857 9856 9854 9853 9853 9852 9851 9851 9851 9850 9850 9849 9849 9849 9849 9849 9850 9850 9851 9851 9852 9853 9855 9856 9857 9858 9861 9863 9865 9866 9869 9871 9875 9878 9881 9884 9888 9891 9895 9899 9904 9908 9913 9919 9925 9930 9935 9942 9948 9955 9962 9969 9976 9983 9991 9998 10004 10011 10018 10024 10031 10038 10043 10046 10049 10053 10059 10066 10073 10080 10088
9858 9857 9855 9854 9852 9851 9850 9849 9848 9848 9847 9847 9846 9845 9845 9845 9844 9843 9843 9843 9844 9844 9845 9845 9846 9848 9849 9849 9851 9853 9854 9855 9857 9860 9863 9866 9869 9872 9875 9878 9882 9886 9890 9895 9899 9903 9908 9913 9917 9922 9929 9934 9940 9946 9953 9960 9968 9975 9981 9988 9994 10001 10007 10015 10022 10026 10029 10032 10037 10043 10051 10058 10065 10071
9855 9853 9852 9850 9849 9847 9846 9845 9845 9844 9843 9843 9842 9841 9841 9840 9839 9839 9838 9838 9838 9838 9839 9839 9840 9840 9842 9842 9844 9845 9846 9848 9851 9853 9855 9858 9860 9863 9866 9870 9873 9877 9881 9885 9888 9892 9896 9901 9905 9910 9916 9921 9925 9931 9938 9946 9952 9958 9963 9970 9977 9984 9991 9998 10005 10010 10014 10019 10024 10030 10038 10045 10050 10055
9852 9850 9849 9847 9845 9844 9843 9842 9841 9840 9839 9839 9838 9837 9836 9836 9835 9834 9834 9833 9833 9832 9832 9833 9833 9834 9834 9835 9837 9838 9840 9842 9844 9846 9848 9850 9852 9855 9857 9860 9864 9868 9871 9874 9878 9881 9885 9889 9894 9898 9903 9908 9913 9918 9925 9932 9938 9943 9947 9953 9960 9968 9975 9982 9989 9995 10000 10006 10010 10016 10024 10030 10034 10038
9849 9847 9845 9843 9842 9840 9839 9838 9837 9836 9836 9835 9834 9833 9832 9831 9830 9830 9829 9828 9828 9827 9827 9827 9827 9827 9828 9829 9830 9832 9833 9835 9837 9839 9841 9843 9845 9847 9849 9852 9855 9859 9862 9865 9868 9871 9875 9879 9883 9887 9892 9896 9901 9907 9913 9919 9925 9929 9934 9940 9946 9953 9960 9968 9975 9981 9986 9991 9995 10001 10008 10014 10018 10023
9845 9844 9842 9840 9838 9836 9835 9834 9832 9832 9831 9830 9830 9829 9828 9827 9826 9825 9824 9823 9823 9822 9822 9822 9822 9822 9822 9823 9824 9825 9827 9829 9831 9832 9834 9835 9837 9840 9842 9845 9847 9850 9853 9856 9859 9862 9866 9869 9873 9877 9881 9885 9890 9896 9901 9907 9912 9917 9922 9927 9933 9940 9947 9954 9960 9967 9972 9976 9981 9987 9993 9999 10005 10010
9841 9840 9838 9836 9835 9833 9831 9830 9828 9827 9826 9826 9825 9824 9824 9823 9822 9821 9820 9819 9818 9818 9817 9817 9817 9816 9816 9817 9818 9819 9821 9822 9824 9825 9827 9828 9831 9833 9835 9838 9840 9842 9845 9848 9851 9854 9858 9861 9865 9868 9872 9876 9880 9884 9889 9894 9900 9905 9910 9915 9921 9927 9933 9939 9945 9952 9957 9963 9968 9974 9979 9986 9992 9998
9838 9836 9834 9833 9831 9829 9828 9826 9825 9823 9822 9821 9821 9820 9819 9818 9818 9817 9816 9815 9814 9813 9813 9812 9812 9812 9812 9812 9813 9814 9815 9816 9818 9819 9820 9822 9824 9826 9829 9831 9833 9835 9838 9841 9844 9847 9850 9853 9856 9859 9863 9866 9870 9874 9878 9883 9888 9893 9898 9903 9908 9914 9920 9926 9933 9939 9944 9950 9956 9961 9967 9973 9979 9985
9834 9832 9830 9829 9827 9826 9824 9823 9821 9820 9818 9817 9816 9816 9815 9814 9813 9813 9812 9811 9810 9809 9809 9808 9808 9807 9807 9807 9808 9809 9810 9811 9812 9813 9815 9816 9818 9820 9822 9824 9826 9829 9831 9834 9837 9840 9842 9845 9848 9851 9854 9858 9861 9865 9869 9874 9878 9882 9887 9892 9897 9903 9909 9915 9921 9926 9932 9938 9943 9949 9955 9960 9966 9972
9830 9828 9827 9825 9823 9822 9821 9819 9818 9816 9815 9813 9812 9811 9811 9810 9809 9809 9808 9807 9806 9805 9805 9804 9804 9804 9803 9803 9804 9804 9805 9806 9807 9808 9809 9811 9812 9814 9816 9818 9820 9823 9825 9827 9830 9833 9835 9837 9840 9844 9847 9850 9853 9857 9862 9866 9870 9874 9879 9883 9888 9893 9898 9903 9909 9914 9920 9925 9931 9937 9943 9948 9954 9959
9825 9824 9823 9821 9820 9818 9817 9815 9814 9813 9811 9810 9809 9808 9807 9806 9805 9805 9804 9804 9802 9801 9801 9800 9800 9800 9800 9800 9800 9800 9800 9801 9802 9803 9804 9805 9807 9809 9810 9812 9814 9817 9819 9821 9823 9826 9829 9831 9834 9837 9840 9843 9846 9850 9855 9859 9863 9867 9871 9874 9878 9883 9888 9893 9898 9903 9908 9913 9919 9924 9930 9936 9941 9947
9821 9820 9818 9817 9816 9814 9813 9812 9810 9809 9808 9806 9805 9804 9803 9802 9802 9801 9801 9800 9799 9798 9797 9797 9796 9796 9796 9796 9796 9796 9796 9797 9798 9799 9800 9801 9802 9804 9805 9807 9809 9811 9813 9816 9818 9820 9822 9825 9827 9830 9833 9836 9839 9843 9847 9851 9855 9858 9862 9865 9869 9873 9878 9883 9888 9893 9898 9903 9908 9914 9919 9925 9930 9935
9817 9815 9814 9813 9812 9811 9809 9808 9807 9806 9804 9803 9802 9801 9800 9799 9798 9797 9797 9797 9796 9795 9794 9793 9793 9793 9792 9792 9792 9792 9793 9793 9794 9795 9796 9797 9798 9799 9801 9802 9804 9806 9808 9810 9812 9814 9816 9819 9821 9823 9826 9829 9832 9836 9839 9843 9847 9850 9853 9856 9860 9864 9868 9872 9877 9882 9887 9892 9898 9903 9909 9914 9919 9924
9813 9812 9810 9809 9808 9807 9806 9804 9803 9802 9801 9800 9799 9798 9796 9796 9795 9794 9794 9793 9793 9793 9792 9791 9790 9790 9789 9789 9789 9789 9789 9790 9791 9791 9792 9793 9794 9795 9796 9798 9799 9801 9803 9804 9806 9808 9810 9812 9815 9817 9820 9823 9826 9829 9832 9835 9838 9842 9845 9848 9852 9855 9859 9863 9867 9872 9877 9882 9887 9893 9899 9904 9909 9913
9809 9808 9806 9805 9804 9803 9802 9801 9800 9799 9798 9797 9795 9794 9793 9792 9791 9791 9790 9790 9790 9789 9789 9788 9787 9787 9787 9786 9786 9786 9786 9787 9787 9788 9788 9789 9790 9791 9792 9793 9795 9796 9798 9799 9801 9803 9805 9807 9809 9812 9814 9816 9819 9822 9825 9828 9831 9835 9838 9842 9845 9849 9852 9856 9860 9864 9868 9873 9878 9884 9889 9894 9899 9904
9805 9804 9802 9801 9800 9798 9798 9797 9796 9795 9794 9793 9792 9791 9790 9789 9788 9788 9787 9787 9786 9786 9786 9786 9785 9784 9784 9784 9784 9783 9783 9784 9784 9784 9785 9785 9786 9787 9788 9790 9791 9792 9793 9795 9796 9798 9800 9802 9804 9806 9809 9811 9814 9816 9819 9822 9825 9829 9832 9835 9839 9842 9846 9849 9853 9856 9860 9865 9869 9874 9879 9884 9888 9893
9801 9799 9798 9797 9796 9795 9794 9793 9792 9791 9790 9789 9789 9788 9787 9786 9785 9784 9784 9784 9783 9783 9783 9783 9782 9782 9782 9781 9781 9781 9781 9781 9781 9781 9782 9782 9783 9784 9785 9786 9787 9788 9789 9791 9792 9794 9796 9798 9800 9802 9804 9807 9809 9812 9814 9817 9820 9823 9826 9829 9833 9836 9839 9843 9846 9849 9853 9857 9861 9865 9870 9874 9879 9884